Regional Weather Roundup
Issued by NWS Bismarck, ND

Home | Current Version | Previous Version | Text Only | Print | Product List | Glossary On
Versions: 1 2 3 4 5 6 7 8 9 10 11 12 13 14 15 16 17 18 19 20 21 22 23 24 25 26 27 28 29 30 31 32 33 34 35 36 37 38 39 40 41 42 43 44 45 46 47 48 49 50
000
ASUS43 KBIS 270620
RWRBIS

NWR BROADCAST TEXT
NATIONAL WEATHER SERVICE BISMARCK ND
100 AM CDT WED MAY 27 2015

NOTE: "FAIR" INDICATES FEW OR NO CLOUDS BELOW 12,000 FEET WITH NO
SIGNIFICANT WEATHER AND/OR OBSTRUCTIONS TO VISIBILITY.


CITY           SKY/WX    TMP DP  RH WIND       PRES   REMARKS
WILLISTON      PTCLDY    63  45  51 S3        29.90S
MINOT          CLEAR     62  45  53 SW10      29.87R
MINOT AFB      CLEAR     57  54  91 W6        29.86S
BISMARCK       CLEAR     56  51  84 CALM      29.92R
DICKINSON      CLEAR     52  43  71 S9        29.93S
GARRISON         N/A     58  48  69 W3        29.90S
HETTINGER ARPT CLEAR     50  45  83 CALM      29.97S
JAMESTOWN      PTCLDY    58  48  69 NW9       29.85S
BEACH          FAIR      48  48 100 SE6       29.95S
CARRINGTON     FAIR      55  52  88 W6        29.88S
CROSBY         FAIR      57  46  67 SW12      29.89S
HARVEY         FAIR      55  46  71 SW7       29.87S
HAZEN          FAIR      48  45  87 CALM      29.92S
LINTON         FAIR      54  52  94 E5        29.92S
MANDAN         FAIR      59  48  67 N3        29.93R
OAKES            N/A     59  54  82 W12       29.85S
STANLEY        FAIR      55  50  82 SW3       29.91F
TIOGA          FAIR      57  46  67 SW3       29.93F
WATFORD CITY   MOCLDY    57  46  67 CALM      29.90S
$$

CITY           SKY/WX    TMP DP  RH WIND       PRES   REMARKS
GRAND FORKS    PTCLDY    59  51  75 W7        29.77S
GRAND FORKS AF PTCLDY    65  46  50 NW10      29.80R
DEVILS LAKE    CLEAR     57  46  67 W8        29.84F
FARGO          PTCLDY    62  53  72 SW6       29.79R
CANDO          FAIR      57  45  62 NW10      29.86S
CAVALIER       FAIR      66  46  48 N8        29.79S
GRAFTON        FAIR      64  48  55 NW7       29.80R
LANGDON        FAIR      55  43  62 W3        29.84S
ROLLA          FAIR      55  45  67 W8        29.87S
WALHALLA         N/A     63  45  51 MISG      29.81S
$$

CITY           SKY/WX    TMP DP  RH WIND       PRES   REMARKS
ABERDEEN       CLEAR     52  50  93 W6        29.89R
MOBRIDGE       CLEAR     59  53  80 SE5       29.91R
BUFFALO          N/A     52  46  80 E8        29.90S
RAPID CITY     PTCLDY    52  48  86 S3        29.99S
GLASGOW        PTCLDY    59  50  72 NW7       29.88S
SIDNEY         PTCLDY    55  46  71 CALM      29.90S
WOLF POINT     MOCLDY    57  48  72 CALM      29.88S
GLENDIVE       PTCLDY    59  48  67 S7        29.92S
MILES CITY     PTCLDY    61  49  64 S3        29.90S
BAKER          CLEAR     51  45  79 SE6       29.95S
$$

CITY           SKY/WX    TMP DP  RH WIND       PRES   REMARKS
BILLINGS       PTCLDY    53  49  86 N5        29.96S
GREAT FALLS    PTCLDY    52  48  86 E5        29.97S
REGINA         CLEAR     64  48  55 NE10      29.89R
ESTEVAN        PTCLDY    55  46  71 SW7       29.88S
$$




USA.gov is the U.S. government's official web portal to all federal, state and local government web resources and services.